Flag Weather past 2 weeks in Luton, England, United Kingdom

Now
48 °F

Passing clouds.


Feels Like: 46 °F
Forecast: N/A
Wind: 6 mph from East

Location: Luton Airport

Current Time: Nov 27, 2014 at 7:02:53 PM

Latest Report: Nov 27, 2014 at 6:20 PM


Visibility: 4 mi

Pressure: 29.59 "Hg

Humidity: 94%

Dew point: 46 °F

Location of LutonLocation

Historic Weather in Luton — Graph

°F

Luton temperature yesterday

Maximum temperature yesterday: 46 °F (at 10:50 AM)
Minimum temperature yesterday: 43 °F (at 12:20 AM)
Average temperature yesterday: 45 °F

Past Weeks' High & Low Weather Summary

 TemperatureHumidityPressure
High55 °F (Nov 14, 1:50 PM)100% (Nov 12, 6:50 PM)30.33 "Hg (Nov 12, 6:50 PM)
Low32 °F (Nov 25, 4:20 AM)77% (Nov 14, 2:20 PM)29.42 "Hg (Nov 14, 7:50 AM)
Average46 °F97%29.84 "Hg
* Reported Nov 12 5:20 PM — Nov 27 5:50 PM, Luton, Weather by CustomWeather, © 2014

Note: Actual official high and low records may vary slightly from our data, if they occured in-between our weather recording intervals... More about our weather records

Advertising

Luton weather history for previous 24 hours

 ConditionsComfort  
Time TempWeatherWind HumidityBarometerVisibility
5:50 PM
Nov 27
48 °FPassing clouds.7 mph94%29.59 "Hg4 mi
5:20 PM46 °FPassing clouds.5 mph100%29.59 "HgN/A
4:50 PM46 °FPassing clouds.3 mph93%29.59 "HgN/A
4:20 PM46 °FPassing clouds.2 mph100%29.59 "HgN/A
3:50 PM46 °FPartly sunny.No wind100%29.59 "HgN/A
3:20 PM46 °FBroken clouds.3 mph100%29.59 "HgN/A
2:50 PM46 °FPartly sunny.2 mph100%29.59 "HgN/A
2:20 PM46 °FPartly sunny.2 mph100%29.59 "HgN/A
1:50 PM48 °FScattered clouds.5 mph94%29.59 "HgN/A
1:20 PM48 °FScattered clouds.6 mph94%29.59 "HgN/A
12:50 PM48 °FScattered clouds.5 mph94%29.59 "HgN/A
12:20 PM46 °FScattered clouds.5 mph100%29.59 "HgN/A
11:50 AM46 °FPartly sunny.6 mph100%29.59 "HgN/A
11:20 AM46 °FPartly sunny.5 mph100%29.59 "HgN/A
10:50 AM46 °FPartly sunny.6 mph100%29.59 "HgN/A
10:20 AM46 °FFog.6 mph100%29.62 "Hg1 mi
9:50 AM46 °FFog.5 mph100%29.62 "Hg0 mi
9:20 AM46 °FFog.2 mph100%29.62 "Hg0 mi
8:20 AM46 °FFog.2 mph100%29.62 "Hg0 mi
7:50 AM46 °FFog.3 mph100%29.62 "Hg0 mi
7:20 AM46 °FFog.3 mph100%29.59 "Hg0 mi
6:50 AM46 °FFog.No wind100%29.59 "Hg0 mi
6:20 AM46 °FFog.2 mph100%29.62 "Hg1 mi
5:50 AM46 °FFog.No wind100%29.62 "Hg1 mi
5:20 AM46 °FFog.No wind100%29.62 "Hg1 mi
4:50 AM46 °FRain. Low clouds.2 mph100%29.62 "Hg1 mi
4:20 AM46 °FRain. Low clouds.2 mph100%29.62 "Hg1 mi
3:50 AM46 °FFog.2 mph100%29.65 "Hg0 mi
3:20 AM46 °FFog.2 mph100%29.65 "Hg0 mi
2:50 AM46 °FFog.2 mph100%29.65 "Hg1 mi
2:20 AM46 °FFog.2 mph100%29.68 "Hg1 mi
1:50 AM46 °FFog.3 mph100%29.68 "Hg1 mi
1:20 AM46 °FFog.2 mph100%29.68 "Hg1 mi
12:50 AM46 °FFog.3 mph100%29.71 "Hg1 mi
12:20 AM46 °FPassing clouds.3 mph100%29.71 "Hg1 mi
11:50 PM
Nov 26
46 °FDrizzle. Mostly cloudy.3 mph100%29.71 "Hg1 mi
11:20 PM46 °FLight rain. Partly cloudy.3 mph100%29.74 "Hg1 mi
10:50 PM46 °FPassing clouds.2 mph100%29.74 "Hg1 mi
10:20 PM46 °FFog.2 mph100%29.74 "Hg0 mi
9:50 PM46 °FFog.2 mph100%29.74 "Hg0 mi
9:20 PM46 °FFog.2 mph100%29.77 "Hg0 mi
8:50 PM46 °FFog.No wind100%29.77 "Hg0 mi
8:20 PM46 °FFog.No wind100%29.77 "Hg0 mi
7:50 PM46 °FFog.No wind100%29.77 "Hg0 mi
7:20 PM46 °FFog.No wind100%29.77 "Hg0 mi
Weather by CustomWeather, © 2014

See weather overviewHow to use our weather pages